SL-12 R/B(AUX MOTOR), 37143

Orbit data source: Space-Track

SL-12 R/B(AUX MOTOR), 37143 is space debris originally from a launch on Thu, 02 Sep 2010 UTC launched from the Tyuratam Missile And Space Complex (TTMTR). Debris objects in space refer to the collection of defunct objects orbiting the Earth. Examples of debris include non-operational satellites, rocket bodies, and fragments generated from explosions, collisions, or faulty payload assembly.

Loading next visibility...
Identifier
37143, 2010-041G
Orbit
Active
Country
Flag of CISCIS
Related business
Manufacturer
RKKE
Mission
Spacecraft
Bus & Motor
SOZ, Unknown motor
Mass
56 kg wet, 56 kg dry
Launch date (UTC)
2010-09-02 (15 years ago)
Launch vehicle
Unknown
Launch site
Tyuratam Missile And Space Complex (TTMTR)
Object type
Payload
Rocket body
Debris
Shape & HBR
Cyl, 0.6 m
Radar Cross Section
0.660 m², Medium (>0.1 m² and < 1m²)

Expand to show TLE details & history
Last TLE update: 16 hours ago

TLE from 16 hours ago
0 SL-12 R/B(AUX MOTOR)
1 37143U 10041G   25342.09244028  .00114065  00000-0  55719-2 0  9995
2 37143  64.4215  29.2062 3422278 293.1116  34.7542  8.53734456265355
Epoch: 2025-12-08T02:13Z
TLE epoch observation values (Epoch: 2025-12-08T02:13:06.840Z)
Latitude
0.00004°
Longitude
-81.16872°
Altitude
1,498.28 km
Speed
7.863 km/s
True Right ascension
01h 56m 49s
True Declination
0° 00' 00"
Sunlit
Object was in full shadow at epoch
Visualization orbit readout
Latitude
Unknown
Longitude
Unknown
Altitude
Unknown
Speed
Unknown
Apparent Right ascension
Unknown
Apparent Declination
Unknown
Sunlit
N/A
Visualization observer readout
Local Sidereal Time
16:05:40
Azimuth
Unknown
Elevation
Unknown
Doppler factor
Unknown
Orbital elements
Apogee altitude
7,193.434 km
Perigee altitude
272.747 km
Semi-major axis
10,111.227 km
Eccentricity
0.34223
Inclination
64.4215°
RAAN
29.2062°
Arg. of periapsis
293.1116°
True anomaly
66.98807°
Mean anomaly
34.7542°
Eccentric anomaly
49.71125°
Mean motion
2.1347 °/min
Orbital period
168.64 mins
BSTAR
0.0055719
Loading maneuver chart data...
Computing Atmospheric mass density...
Loading historical data...
Loading historical data...
Loading historical data...
Loading historical data...
Loading historical data...
Loading historical data...
Loading historical data...

Documentation

Showing up to 5 results
|